CW0570 Weather Reports


Display with metric or nautical units.
time (UTC)temp
F
wind
direction
speed
MPH
gust
MPH
rain 1hr
in
rain 24hr
in
rain mn
in
humidity
%
barometer
mb
20260903011556 57 322 0.0 2.0 0.10 0.37 0.37 96 1014.2
20260903010040 57 321 0.0 3.0 0.09 0.33 0.33 96 1014.1
20260903004541 58 348 0.0 3.0 0.09 0.31 0.31 96 1014.0
20260903003041 58 348 0.0 2.0 0.10 0.28 0.28 96 1014.0
20260903001538 58 322 0.0 2.0 0.08 0.27 0.27 96 1014.0
20260903000038 59 278 0.0 2.0 0.05 0.24 0.24 96 1014.0
20260902234541 59 263 0.0 2.0 0.05 0.22 0.22 96 1014.1
20260902233046 59 9 0.0 2.0 0.02 0.19 0.19 96 1014.0
20260902231549 60 92 0.0 3.0 0.02 0.19 0.19 96 1013.9
20260902230035 59 5 0.0 2.0 0.02 0.19 0.19 96 1014.0
20260902224539 59 355 0.0 2.0 0.00 0.17 0.17 96 1014.1
20260902223032 59 155 0.0 2.0 0.02 0.17 0.17 96 1014.3
20260902221527 59 316 0.0 0.0 0.02 0.17 0.17 96 1014.2
20260902220024 59 316 0.0 0.0 0.02 0.17 0.17 96 1014.4
20260902214522 59 317 0.0 0.0 0.02 0.17 0.17 96 1014.6
20260902213020 59 317 0.0 3.0 0.00 0.15 0.15 96 1014.6
20260902211523 59 11 0.0 3.0 0.00 0.15 0.15 97 1014.7
20260902210018 59 21 0.0 2.0 0.01 0.15 0.15 97 1014.9
20260902204517 59 21 0.0 0.0 0.02 0.15 0.15 97 1014.9
20260902203017 59 21 0.0 2.0 0.02 0.15 0.15 97 1014.8
20260902201514 58 15 0.0 2.0 0.03 0.15 0.15 97 1015.0
20260902200014 58 15 0.0 2.0 0.03 0.14 0.14 96 1015.3
20260902194515 58 15 0.0 3.0 0.02 0.13 0.13 96 1015.5
20260902193014 59 322 0.0 2.0 0.02 0.13 0.13 97 1015.6
20260902191512 59 321 0.0 1.0 0.01 0.12 0.12 97 1015.8
20260902190011 58 321 0.0 1.0 0.01 0.11 0.11 97 1015.6
20260902184510 58 321 0.0 2.0 0.02 0.11 0.11 97 1015.5
20260902183014 58 321 0.0 2.0 0.04 0.11 0.11 97 1015.6
20260902181509 58 321 0.0 2.0 0.06 0.11 0.11 97 1015.5
20260902180010 58 321 0.0 2.0 0.04 0.09 0.09 97 1015.5
20260902174507 57 321 0.0 2.0 0.05 0.09 0.09 97 1015.4
20260902173006 57 321 0.0 2.0 0.04 0.07 0.07 97 1015.4
20260902171504 57 321 0.0 2.0 0.03 0.05 0.05 97 1015.2
20260902170002 56 284 0.0 2.0 0.03 0.05 0.05 96 1015.2
20260902164601 56 284 0.0 1.0 0.03 0.04 0.04 96 1015.2
20260902163104 56 284 0.0 0.0 0.02 0.03 0.03 96 1015.1
20260902161600 55 284 0.0 2.0 0.02 0.02 0.02 96 1015.0
20260902160100 55 284 0.0 1.0 0.02 0.02 0.02 96 1015.0
20260902154556 55 284 0.0 0.0 0.01 0.01 0.01 96 1015.0
20260902153053 55 284 0.0 0.0 0.01 0.01 0.01 96 1015.0
20260902151552 55 284 0.0 0.0 0.00 0.00 0.00 96 1015.0
20260902150050 54 284 0.0 0.0 0.00 0.00 0.00 96 1014.9
20260902144547 54 284 0.0 0.0 0.00 0.00 0.00 96 1014.8
20260902143046 53 284 0.0 0.0 0.00 0.00 0.00 96 1014.9
20260902141546 53 284 0.0 0.0 0.00 0.00 0.00 96 1014.9
20260902140045 53 284 0.0 2.0 0.00 0.00 0.00 96 1015.0
20260902134544 53 284 0.0 2.0 0.00 0.00 0.00 96 1014.9
20260902133042 53 284 0.0 0.0 0.00 0.00 0.00 96 1014.9
20260902131540 53 284 0.0 0.0 0.00 0.00 0.00 96 1014.9
20260902130040 53 284 0.0 0.0 0.00 0.00 0.00 96 1014.8
20260902124540 53 284 0.0 0.0 0.00 0.00 0.00 96 1014.9
20260902123043 53 284 0.0 0.0 0.00 0.00 0.00 96 1014.8
20260902121537 53 284 0.0 0.0 0.00 0.00 0.00 96 1014.8
20260902120037 53 284 0.0 2.0 0.00 0.00 0.00 96 1015.0
20260902114539 52 284 0.0 0.0 0.00 0.00 0.00 96 1015.0
20260902113043 52 284 0.0 0.0 0.00 0.00 0.00 96 1014.9
20260902111533 52 284 0.0 0.0 0.00 0.00 0.00 95 1015.1
20260902110034 52 284 0.0 0.0 0.00 0.00 0.00 95 1015.2
20260902104533 52 284 0.0 0.0 0.00 0.00 0.00 95 1015.3
20260902103032 52 284 0.0 0.0 0.00 0.00 0.00 95 1015.3
20260902101530 52 284 0.0 0.0 0.00 0.00 0.00 95 1015.3
20260902100028 52 284 0.0 0.0 0.00 0.00 0.00 95 1015.5
20260902094526 52 284 0.0 1.0 0.00 0.00 0.00 95 1015.5
20260902093025 52 284 0.0 0.0 0.00 0.00 0.00 96 1015.6
20260902091522 52 284 0.0 0.0 0.00 0.00 0.00 96 1015.7
20260902090022 51 284 0.0 0.0 0.00 0.00 0.00 96 1015.8
20260902084525 51 284 0.0 0.0 0.00 0.00 0.00 95 1016.0
20260902083020 51 284 0.0 0.0 0.00 0.00 0.00 95 1016.1
20260902081519 51 284 0.0 2.0 0.00 0.00 0.00 94 1016.1
20260902080016 51 284 0.0 0.0 0.00 0.00 0.00 94 1016.1
20260902074515 52 284 0.0 0.0 0.00 0.00 0.00 94 1016.1
20260902073013 52 284 0.0 0.0 0.00 0.00 0.00 93 1016.0
20260902071512 53 284 0.0 0.0 0.00 0.00 0.00 93 1015.8
20260902070009 53 284 0.0 0.0 0.00 0.00 0.00 92 1015.8
20260902064505 54 284 0.0 1.0 0.00 0.00 0.00 91 1015.6
20260902063002 55 284 0.0 0.0 0.00 0.00 0.00 90 1015.6
20260902061610 55 284 0.0 2.0 0.00 0.00 0.00 91 1015.7
20260902060108 55 284 0.0 2.0 0.00 0.00 0.00 90 1015.8
20260902054559 55 284 0.0 0.0 0.00 0.00 0.00 90 1016.1
20260902053112 55 284 0.0 0.0 0.00 0.00 0.00 89 1016.0
20260902051559 56 284 0.0 0.0 0.00 0.00 0.00 88 1016.0
20260902050107 56 284 0.0 0.0 0.00 0.00 0.00 88 1015.8
20260902044554 57 284 0.0 0.0 0.00 0.00 0.00 88 1015.7
20260902043053 57 284 0.0 0.0 0.00 0.00 0.00 88 1015.7
20260902041551 57 284 0.0 0.0 0.00 0.00 0.00 88 1015.7
20260902040051 57 284 0.0 0.0 0.00 0.00 0.00 87 1015.7
20260902034550 57 284 0.0 0.0 0.00 0.00 0.00 85 1015.5
20260902033052 58 284 0.0 0.0 0.00 0.00 0.00 83 1015.3
20260902031549 59 284 0.0 0.0 0.00 0.00 0.00 82 1015.3
20260902030050 60 284 0.0 2.0 0.00 0.00 0.00 80 1015.4
20260902024548 61 284 0.0 2.0 0.00 0.00 0.00 78 1015.2
20260902023052 61 128 0.0 2.0 0.00 0.00 0.00 78 1015.3
20260902021547 62 26 0.0 5.0 0.00 0.00 0.00 78 1015.4
20260902020046 62 262 0.0 4.0 0.00 0.00 0.00 78 1015.5
20260902014548 62 342 1.0 3.0 0.00 0.00 0.00 78 1015.5
20260902013047 63 277 1.0 5.0 0.00 0.00 0.00 77 1015.5